Location: *
(38.4303°S, 157.0822°W)
Time: 15:57:21
(UTC+00:00)

Cosmos 1500 - Pass Details

Date: 21 May 2024
Orbit: 438 x 451 km, 82.5° (Epoch: 22 June)

Event Time Altitude Azimuth Distance (km) Brightness Sun altitude
Rises 16:59:36 0° 184° (S) 2,483 6.4 -6.1°
Reaches altitude 10° 17:01:43 10° 180° (S) 1,604 5.5 -5.7°
Maximum altitude 17:05:10 60° 99° (E) 528 3.6 -5.1°
Drops below altitude 10° 17:08:36 10° 17° (NNE) 1,589 6.3 -4.5°
Sets 17:10:40 0° 14° (NNE) 2,455 7.2 -4.1°
